User: anonymous   Login
Location: Unspecified
(0.0000°N, 0.0000°E)
Time: 00:53:28
(UTC+00:00)
Language:

SKYSAT 2 - Orbit

View from above orbital plane
View from above orbital plane
View from above satellite
View from above satellite

Ground track
Ground track

The orbit data is extracted from the following two-line orbital elements,

1 40072U 14037D   22141.21991660  .00001198  00000-0  15950-3 0  9994
2 40072  98.4131   8.3742 0007404  50.7971 309.3896 14.81686137425216
Epoch (UTC): 21 May 2022 05:16:40
Eccentricity: 0.0007404
inclination: 98.4131°
perigee height: 619 km
apogee height: 629 km
right ascension of ascending node: 8.3742°
argument of perigee: 50.7971°
revolutions per day: 14.81686137
mean anomaly at epoch: 309.3896°
orbit number at epoch: 42521

The dashed part of the orbit path shows where the satellite is in the earth's shadow,  

DLR